Location: Asheville, NC
(35.6000°N, 82.5500°W)
Time: 17:14:00
(UTC-04:00)

Vanguard 2 Rocket - Pass Details

Date: 08 March 2018
Orbit: 553 x 3327 km, 32.9° (Epoch: 17 June)

Event Time Altitude Azimuth Distance (km) Brightness Sun altitude
Rises 18:10:51 0° 231° (SW) 2,766 10.6 3.4°
Reaches altitude 10° 18:12:57 10° 222° (SW) 1,968 9.5 3.0°
Maximum altitude 18:16:59 36° 154° (SSE) 1,171 7.4 2.2°
Drops below altitude 10° 18:22:47 10° 89° (E) 2,868 8.8 1.0°
Sets 18:26:28 0° 83° (E) 4,261 9.6 0.2°
